Gillette, WY

11:20 PM MDT on March 23, 2017 (GMT -0600)
Gillette-Campbell County

Weather History for KGCC - May, 2012

Change the Weather History Date:

Friday, May 11, 2012

  Actual Average Record
Temperature  
Mean Temperature 43 °F 52 °F  
Max Temperature 58 °F 64 °F 86 °F (1940)
Min Temperature 28 °F 39 °F 14 °F (1968)
Degree Days  
Heating Degree Days 22 14  
Month to date heating degree days 169 169  
Since 1 July heating degree days 6443 7185  
Cooling Degree Days 0 0  
Month to date cooling degree days 0 0  
Year to date cooling degree days 2 0  
Moisture  
Dew Point 24 °F    
Average Humidity 58    
Maximum Humidity 92    
Minimum Humidity 24    
Precipitation  
Precipitation 0.00 in 0.09 in 1.05 in (1964)
Month to date precipitation 0.28 0.78  
Year to date precipitation 4.21 3.99  
Sea Level Pressure  
Sea Level Pressure 30.24 in    
Wind  
Wind Speed 7 mph (SSE)    
Max Wind Speed 21 mph    
Max Gust Speed 26 mph    
Visibility 10 miles    
Events      
T = Trace of Precipitation, MM = Missing Value Source: NWS Daily Summary

Daily Weather History Graph

Daily Weather History Graph

Search for Another Location

Airport or City:

Trip Planner

Search our weather history database for the weather conditions in past years. The results will help you decide how hot, cold, wet, or windy it might be!

Date:

Astronomy

May. 11, 2012 Rise Set
Actual Time 5:39 AM MDT 8:18 PM MDT
Civil Twilight 5:05 AM MDT 8:52 PM MDT
Nautical Twilight 4:24 AM MDT 9:34 PM MDT
Astronomical Twilight 3:36 AM MDT 10:22 PM MDT
Moon 12:58 AM MDT (5/11) 11:17 AM MDT (5/11)
Length of Visible Light 15h 46m
Length of Day
14h 39m
Waning Gibbous, 62% of the Moon is Illuminated
May 11
Waning Gibbous
May 12
Last Quarter
May 20
New
May 28
First Quarter
Jun 4
Full

Hourly Weather History & Observations

Time (MDT) Temp. Windchill Dew Point Humidity Pressure Visibility Wind Dir Wind Speed Gust Speed Precip Events Conditions
12:53 AM 39.9 °F 35.1 °F 30.0 °F 68% 30.09 in 10.0 mi NNE 6.9 mph - N/A   Clear
1:53 AM 34.0 °F 29.8 °F 28.9 °F 82% 30.13 in 10.0 mi NW 4.6 mph - N/A   Partly Cloudy
2:53 AM 30.0 °F - 26.1 °F 85% 30.17 in 10.0 mi Calm Calm - N/A   Partly Cloudy
3:53 AM 28.0 °F - 27.0 °F 96% 30.21 in 10.0 mi Calm Calm - N/A   Overcast
4:53 AM 30.9 °F 27.5 °F 28.0 °F 89% 30.25 in 10.0 mi WSW 3.5 mph - N/A   Overcast
5:53 AM 30.0 °F - 28.0 °F 92% 30.28 in 10.0 mi Calm Calm - N/A   Overcast
6:53 AM 37.9 °F - 28.9 °F 70% 30.28 in 10.0 mi Calm Calm - N/A   Overcast
7:53 AM 42.1 °F 39.2 °F 26.1 °F 53% 30.29 in 10.0 mi East 4.6 mph - N/A   Overcast
8:53 AM 43.0 °F 40.3 °F 21.0 °F 42% 30.30 in 10.0 mi ENE 4.6 mph - N/A   Overcast
9:53 AM 46.0 °F - 17.1 °F 31% 30.30 in 10.0 mi Calm Calm - N/A   Mostly Cloudy
10:53 AM 48.9 °F - 17.1 °F 28% 30.29 in 10.0 mi Variable 4.6 mph - N/A   Overcast
11:53 AM 50.0 °F - 19.0 °F 29% 30.28 in 10.0 mi Variable 5.8 mph - N/A   Overcast
12:53 PM 53.1 °F - 19.9 °F 27% 30.25 in 10.0 mi SE 8.1 mph - N/A   Mostly Cloudy
1:53 PM 52.0 °F - 19.0 °F 27% 30.26 in 10.0 mi SSW 5.8 mph - N/A   Clear
2:53 PM 55.0 °F - 19.9 °F 25% 30.25 in 10.0 mi ESE 8.1 mph - N/A   Clear
3:53 PM 55.9 °F - 21.0 °F 26% 30.24 in 10.0 mi Calm Calm - N/A   Clear
4:53 PM 55.9 °F - 19.9 °F 25% 30.23 in 10.0 mi Variable 4.6 mph - N/A   Partly Cloudy
5:53 PM 57.0 °F - 21.9 °F 26% 30.20 in 10.0 mi South 5.8 mph - N/A   Partly Cloudy
6:53 PM 55.0 °F - 25.0 °F 31% 30.19 in 10.0 mi SSE 13.8 mph - N/A   Clear
7:53 PM 51.1 °F - 27.0 °F 39% 30.20 in 10.0 mi SSE 15.0 mph - N/A   Clear
8:53 PM 48.0 °F - 26.1 °F 42% 30.22 in 10.0 mi South 12.7 mph - N/A   Clear
9:53 PM 45.0 °F 38.9 °F 26.1 °F 48% 30.25 in 10.0 mi SSE 12.7 mph - N/A   Clear
10:53 PM 44.1 °F 36.8 °F 25.0 °F 47% 30.25 in 10.0 mi SSE 16.1 mph - N/A   Clear
11:53 PM 42.1 °F 33.9 °F 23.0 °F 47% 30.26 in 10.0 mi South 17.3 mph - N/A   Clear